Flag for Switzerland Weather past 2 weeks in Martigny, Valais, Switzerland

Now
35 °F

Chilly.


Feels Like: 35 °F
Forecast: 30 / 50 °F
Wind: 1 mph from Southeast

Location: Sion

Current Time: Feb 28, 2015 at 10:34:03 PM

Latest Report: Feb 28, 2015 at 9:00 PM


Visibility: N/A

Pressure: 30.18 "Hg

Humidity: 76%

Dew point: 28 °F

Location of MartignyLocation

Historic Weather in Martigny — Graph

°F

Martigny temperature yesterday

Maximum temperature yesterday: 43 °F (at 4:00 PM)
Minimum temperature yesterday: 37 °F (at 1:00 AM)
Average temperature yesterday: 40 °F

Past Weeks' High & Low Weather Summary

 TemperatureHumidityPressure
High53 °F (Feb 16, 4:00 PM)95% (Feb 15, 7:00 AM)30.70 "Hg (Feb 15, 7:00 AM)
Low27 °F (Feb 20, 5:00 AM)17% (Feb 20, 3:00 PM)29.53 "Hg (Feb 21, 1:00 PM)
Average38 °F69%30.08 "Hg
* Reported Feb 13 9:00 PM — Feb 28 9:00 PM, Martigny, Weather by CustomWeather, © 2015

Note: Actual official high and low records may vary slightly from our data, if they occured in-between our weather recording intervals... More about our weather records

Advertising

Martigny weather history for previous 24 hours

 ConditionsComfort  
Time TempWeatherWind HumidityBarometerVisibility
9:00 PM
Sat, Feb 28
35 °FChilly.1 mph76%30.18 "HgN/A
8:00 PM36 °FChilly.1 mph75%30.16 "HgN/A
7:00 PM39 °FPassing clouds.3 mph70%30.13 "Hg12 mi
6:00 PM42 °FQuite cool.8 mph62%30.09 "HgN/A
5:00 PM45 °FCool.9 mph54%30.07 "HgN/A
4:00 PM46 °FOvercast.10 mph51%30.09 "Hg16 mi
3:00 PM48 °FCool.8 mph44%30.07 "HgN/A
2:00 PM46 °FCool.1 mph46%30.09 "HgN/A
1:00 PM44 °FOvercast.2 mph58%30.13 "Hg16 mi
12:00 PM42 °FQuite cool.3 mph60%30.16 "HgN/A
11:00 AM40 °FChilly.1 mph67%30.18 "HgN/A
10:00 AM38 °FOvercast.1 mph73%30.19 "Hg9 mi
9:00 AM38 °FChilly.2 mph73%30.19 "HgN/A
8:00 AM36 °FChilly.1 mph79%30.18 "HgN/A
7:00 AM36 °FOvercast.1 mph79%30.17 "Hg9 mi
6:00 AM37 °FChilly.1 mph79%30.15 "HgN/A
5:00 AM36 °FChilly.1 mph79%30.14 "HgN/A
4:00 AM37 °FOvercast.No wind75%30.14 "Hg9 mi
3:00 AM37 °FChilly.3 mph73%30.14 "HgN/A
2:00 AM39 °FChilly.2 mph70%30.15 "HgN/A
1:00 AM38 °FOvercast.7 mph71%30.15 "Hg9 mi
12:00 AM39 °FChilly.9 mph69%30.14 "HgN/A
11:00 PM
Fri, Feb 27
39 °FChilly.12 mph68%30.13 "HgN/A
10:00 PM39 °FOvercast.12 mph72%30.12 "Hg12 mi
Weather by CustomWeather, © 2015

See weather overviewHow to use our weather pages